Regional Weather Roundup
Issued by NWS

Home | Current Version | Previous Version | Text Only | Print | Product List | Glossary Off
Versions: 1 2 3 4 5 6 7 8 9 10 11 12 13 14 15 16 17 18 19 20 21 22 23 24 25 26 27 28 29 30 31 32 33 34 35 36 37 38 39 40 41 42 43 44 45 46 47 48 49 50

000
ASUS43 KTOP 050959
RWRKS

WEATHER ROUNDUP FOR KANSAS
NATIONAL WEATHER SERVICE GOODLAND KS
400 AM CST MON DEC 05 2016

NOTE:  "FAIR" INDICATES FEW OR NO CLOUDS BELOW 12,000 FEET WITH NO
SIGNIFICANT WEATHER AND/OR OBSTRUCTIONS TO VISIBILITY.

KSZ001>006-013>018-027>032-041>047-051100-
NORTHWEST KANSAS

CITY           SKY/WX    TMP DP  RH WIND       PRES   REMARKS
GOODLAND       CLOUDY    30  16  56 SW12      29.63F WCI  20
HAYS           CLOUDY    37  25  61 S14       29.77F WCI  28
HILL CITY      CLOUDY    37  24  59 W7        29.73F
RUSSELL        CLEAR     35  26  69 S13       29.77F WCI  26
$$

KSZ061>065-074>080-084>089-051100-
SOUTHWEST KANSAS

CITY           SKY/WX    TMP DP  RH WIND       PRES   REMARKS
DODGE CITY     CLEAR     35  25  66 S13       29.79F WCI  26
ELKHART          N/A     29  18  64 SW8         N/A
GARDEN CITY    CLOUDY    32  23  69 S14       29.75F WCI  22
GREAT BEND     CLEAR     36  27  69 S17       29.82F WCI  26
LIBERAL        CLEAR     30  21  69 S15       29.78F WCI  19
$$

KSZ066>073-081>083-090>101-051100-
SOUTHEAST KANSAS

CITY           SKY/WX    TMP DP  RH WIND       PRES   REMARKS
CHANUTE        CLOUDY    34  33  96 S6        29.98F
COFFEYVILLE    CLOUDY    34  33  96 S3        30.00F FOG
HUTCHINSON     CLEAR     32  27  81 S9        29.88F
MEDICINE LODGE   N/A     33  28  81 S9        29.90F
NEWTON         CLEAR     34  32  92 S13       29.90F WCI  25
PARSONS        CLOUDY    35  34  96 S3        29.99F FOG
WICHITA INTL   CLEAR     33  31  92 S12       29.92F WCI  24
WICHITA JABRA  CLEAR     34  32  92 S10       29.92F WCI  26
WINFIELD       CLOUDY    34  32  92 S9        29.96F
$$

KSZ007>012-019>026-033>040-048>060-102>105-051100-
NORTHEAST KANSAS

CITY           SKY/WX    TMP DP  RH WIND       PRES   REMARKS
CONCORDIA      CLEAR     37  28  70 S14       29.81F WCI  28
EMPORIA        CLEAR     33  32  96 S14       29.93F WCI  23
LAWRENCE       CLEAR     26  26 100 E5        29.94F FOG
MANHATTAN      CLEAR     27  24  89 SW3       29.89F
OLATHE IND     CLEAR     32  31  96 S10       29.94F WCI  24
OLATHE EXE     CLEAR     30  29  96 S9        29.94F
SALINA         CLEAR     34  29  82 S13       29.86F WCI  25
TOPEKA BILLARD CLEAR     30  27  88 SE3       29.92S FOG
TOPEKA FORBES  CLEAR     33  31  92 S9        29.92S
$$



USA.gov is the U.S. government's official web portal to all federal, state and local government web resources and services.